Regional Weather Roundup
Issued by NWS

Home | Current Version | Previous Version | Graphics & Text | Print | Product List | Glossary On
Versions: 1 2 3 4 5 6 7 8 9 10 11 12 13 14 15 16 17 18 19 20 21 22 23 24 25 26 27 28 29 30 31 32 33 34 35 36 37 38 39 40 41 42 43 44 45 46 47 48 49 50
000
ASUS43 KMPX 271001
RWRMN
WEATHER ROUNDUP FOR MINNESOTA
NATIONAL WEATHER SERVICE TWIN CITIES/CHANHASSEN MN
500 AM CDT FRI MAY 27 2016


NOTE: "FAIR" INDICATES FEW OR NO CLOUDS BELOW 12,000 FEET WITH NO
SIGNIFICANT WEATHER AND/OR OBSTRUCTIONS TO VISIBILITY. N/A MEANS
CURRENT SKY AND/OR WEATHER CONDITIONS ARE NOT AVAILABLE.

MNZ060>063-068>070-271100-
   Twin Cities Metro

CITY           SKY/WX    TMP DP  RH WIND       PRES   REMARKS
TWIN CITIES    CLOUDY    68  55  63 SE9       29.81S
ST PAUL        LGT RAIN  65  59  81 SE3       29.81S
CRYSTAL        CLOUDY    67  55  65 SE7       29.79R
BLAINE         CLOUDY    66  57  72 SE6       29.81S
EDEN PRAIRIE   CLOUDY    69  54  58 E7        29.79S
SOUTH ST PAUL  CLOUDY    66  58  74 CALM      29.81S
LAKE ELMO      CLOUDY    64  57  77 SE3       29.83F
$$
MNZ001>005-007-008-013>017-022>024-027-028-271100-
   Northwest Minnesota

CITY           SKY/WX    TMP DP  RH WIND       PRES   REMARKS
BEMIDJI        CLEAR     52  50  93 CALM      29.82F
HALLOCK        FOG       50  48  93 CALM      29.79F VSB 1/2
ROSEAU         CLOUDY    54  48  82 SW5       29.81F
WARROAD        CLOUDY    54  48  82 SW3       29.81F
THIEF RVR FALL PTCLDY    55  52  88 NE5       29.79S
CROOKSTON      CLOUDY    55  54  94 CALM      29.79R
FOSSTON        CLOUDY    54  52  94 E3        29.79F
DETROIT LAKES  CLEAR     55  52  88 E6        29.81S
MOORHEAD       CLEAR     55  54  94 E7        29.77S
PARK RAPIDS    CLEAR     55  49  80 N3        29.81S
MAHNOMEN       FAIR      53  52  97 E6        29.79F
$$
MNZ006-009>011-018-025>026-271100-
   North Central Minnesota

CITY           SKY/WX    TMP DP  RH WIND       PRES   REMARKS
BAUDETTE       CLOUDY    52  50  93 CALM      29.81F
FLAG ISLAND    CLOUDY    54  52  94 CALM      29.80R FOG
INTL FALLS     PTCLDY    49  47  93 CALM      29.82R
WASKISH        CLOUDY    59  54  82 CALM      29.82S
BIG FORK       CLOUDY    52  50  93 N3        29.84R
LONGVILLE      CLEAR     48  46  93 CALM      29.82R
CRANE LAKE     FOG       43  43 100 CALM      29.84S VSB 1/2
ORR            CLEAR     45  41  87 CALM      29.81S
COOK           CLEAR     45  43  93 CALM      29.83S
WALKER         FAIR      53  49  87 NW3       29.82R
$$
MNZ012-019>021-037-271100-
   Northeast Minnesota

CITY           SKY/WX    TMP DP  RH WIND       PRES   REMARKS
DULUTH         CLOUDY    50  47  89 CALM      29.84R
ELY            CLEAR     46  46 100 CALM      29.84S
HIBBING        CLEAR     41  41 100 NW3       29.82F
EVELETH        FOG       45  43  93 CALM      29.83F VSB 3/4
DULUTH HARBOR  FOG       48  46  93 E3        29.85F VSB 1
TWO HARBORS    HAZE      48  43  81 CALM      29.84R VSB<1/4
SILVER BAY     CLOUDY    45  45 100 CALM      29.83R
GRAND MARAIS     N/A     42  41  96 CALM      29.85S
G MARAIS ARPRT PTCLDY    46  45  93 CALM      29.86F
$$
MNZ029>031-032-039>041-046>048-054>057-064-271100-
   West Central Minnesota

CITY           SKY/WX    TMP DP  RH WIND       PRES   REMARKS
FERGUS FALLS   CLEAR     59  52  77 E6        29.75S
WHEATON        CLOUDY    57  54  88 CALM      29.79R
MORRIS         PTCLDY    57  52  82 NE6       29.76F
ALEXANDRIA     CLEAR     56  49  77 N3        29.80S
ELBOW LAKE     FAIR      60  52  74 NE5       29.78F
WADENA         CLEAR     52  48  87 CALM      29.81R
GLENWOOD       CLOUDY    57  52  82 N5        29.78F
APPLETON       CLOUDY    57  52  82 N5        29.75F
ORTONVILLE     CLOUDY    57  52  82 CALM      29.76F
MADISON        PTCLDY    55  52  88 W3        29.76F
WILLMAR        FAIR      61  55  82 SE3       29.78S
$$
MNZ033>034-036-042>043-049>051-058-059-271100-
   Central Minnesota

CITY           SKY/WX    TMP DP  RH WIND       PRES   REMARKS
ST CLOUD       MOCLDY    61  55  81 NE5       29.77F
SAUK CENTRE    PTSUNNY   55  52  92 CALM      29.78F
PAYNESVILLE    CLOUDY    59  56  89 CALM      29.78F
AITKIN         CLOUDY    50  46  87 CALM      29.80S
PINE RIVER     CLEAR     48  48 100 CALM      29.84S
BRAINERD       PTCLDY    56  50  80 SE7       29.81S
STAPLES        CLEAR     54  48  82 CALM      29.80S
LITTLE FALLS   CLOUDY    54  52  94 CALM      29.79F
LITCHFIELD     CLOUDY    64  59  82 CALM      29.79R
BUFFALO        CLOUDY    64  56  75 E5        29.79S
MAPLE LAKE     CLOUDY    65  58  78 E3        29.78F
HUTCHINSON     PTCLDY    64  59  85 SE3       29.79F
$$
MNZ037-044-045-052-053-271100-
   East Central Minnesota

CITY           SKY/WX    TMP DP  RH WIND       PRES   REMARKS
PRINCETON        N/A     63  55  77 E6        29.79F
MORA           CLOUDY    55  50  82 CALM      29.82F
CAMBRIDGE      CLOUDY    64  54  68 SE6       29.79S
RUSH CITY      MOCLDY    59  53  80 SE3       29.82S
MOOSE LAKE     CLOUDY    48  46  93 NE3       29.82S
HINCKLEY       FAIR      54  52  94 CALM      29.82S
CLOQUET        CLOUDY    45  43  93 CALM      29.84S
MCGREGOR       CLOUDY    48  46  93 CALM      29.82S
$$
MNZ071>073-080-081-089-090-097-098-271100-
   Southwest Minnesota

CITY           SKY/WX    TMP DP  RH WIND       PRES   REMARKS
MONTEVIDEO     CLOUDY    59  52  77 CALM      29.77F
GRANITE FALLS  CLOUDY    60  54  80 S3        29.78F
CANBY          CLOUDY    60  54  83 NW5       29.78F
MARSHALL       CLOUDY    64  55  72 SW9       29.76F
REDWOOD FALLS  CLOUDY    61  56  83 S7        29.77F
OLIVIA         PTCLDY    55  52  88 S6        29.78R
PIPESTONE      MOCLDY    59  55  88 CALM      29.77F
WINDOM         CLOUDY    61  55  82 CALM      29.79F
WORTHINGTON    PTCLDY    60  56  86 SE6       29.79F
JACKSON        CLOUDY    59  54  82 CALM      29.79F
TRACY          PTCLDY    62  57  83 SW9       29.77F
SLAYTON        MOCLDY    57  56  96 S7        29.79F
$$
MNZ065>067-074>077-082>085-091>093-271100-
   South Central Minnesota

CITY           SKY/WX    TMP DP  RH WIND       PRES   REMARKS
MANKATO        CLOUDY    64  54  68 S9        29.80S
NEW ULM        PTCLDY    59  57  94 SW6       29.79S
ST JAMES       CLOUDY    57  54  88 CALM      29.80F
FAIRMONT       CLOUDY    63  54  72 S5G16     29.79F
GLENCOE        CLOUDY    64  61  88 SE6       29.78F
OWATONNA       LGT RAIN  66  54  63 SE8       29.82S
WASECA         DRIZZLE   63  54  72 S7        29.83S
ALBERT LEA     CLOUDY    66  55  68 SE9       29.82F
$$
MNZ078>079-086>088-094>096-271100-
   Southeast Minnesota

CITY           SKY/WX    TMP DP  RH WIND       PRES   REMARKS
ROCHESTER      CLOUDY    62  61  96 S3        29.86R
RED WING       CLOUDY    64  61  88 E3        29.82F
STANTON        CLOUDY    67  55  63 SE8       29.81R
DODGE CENTER   CLOUDY    63  57  82 S5        29.84S
WINONA         CLOUDY    63  61  94 SE3       29.84R
AUSTIN         LGT RAIN  63  57  82 CALM      29.84R
PRESTON        CLOUDY    61  57  88 S6        29.87R
$$
ABBREVIATIONS USED IN REMARKS
   TC - TEMPERATURES IN CELSIUS
  WCI - WIND CHILL INDEX
   HX - HEAT INDEX
  VSB - VISIBILITY
$$




USA.gov is the U.S. government's official web portal to all federal, state and local government web resources and services.